This demonstration page uses our WeatherBlox Daily Observations layout. Learn more.

Left ArrowRight Arrow

Hourly Observations for September 22, 2015

Temp ( °F °C ) Dew Point ( °F °C ) Humidity (%) Winds ( mph kmh ) Pressure ( in mb ) Visibility ( mi km ) Precip ( " mm )
12:06 am 00:06 Cloudy with Light Rain 67 19.4 66 18.9 97 97 Calm 29.83 1010 5 8.0467 0.02 0.508
12:51 am 00:51 Cloudy 67 19.4 66 18.9 97 97 SE 3 6 29.84 1011 10 16.0934 0.02 0.508
1:05 am 01:05 Mostly Cloudy 67 19.4 66 18.9 97 97 Calm 29.83 1010 10 16.0934 0 0
1:28 am 01:28 Cloudy with Mist and Fog 67 19.4 66 18.9 97 97 N 3 6 29.83 1010 5 8.0467 0 0
1:47 am 01:47 Cloudy 66 19 66 19 100 100 Calm 29.83 1010 9 14.48406 0 0
1:51 am 01:51 Cloudy 66 18.9 66 18.9 100 100 W 3 6 29.85 1011 10 16.0934 0 0
2:13 am 02:13 Cloudy 67 19.4 66 18.9 97 97 Calm 29.83 1010 10 16.0934 0 0
2:51 am 02:51 Mostly Cloudy 66 18.9 65 18.3 96 96 Calm 29.85 1011 10 16.0934 0 0
2:59 am 02:59 Mostly Cloudy with Mist and Fog 66 18.9 66 18.9 100 100 S 5 7 29.83 1010 2.5 4.02335 0 0
3:04 am 03:04 Mostly Cloudy with Mist and Fog 66 18.9 66 18.9 100 100 SSW 5 7 29.83 1010 0.75 1.207005 0 0
3:12 am 03:12 Mostly Cloudy with Mist and Fog 66 18.9 66 18.9 100 100 Calm 29.83 1010 0.75 1.207005 0 0
3:17 am 03:17 Cloudy with Mist and Fog 66 18.9 66 18.9 100 100 Calm 29.83 1010 2.5 4.02335 0 0
3:30 am 03:30 Mostly Cloudy with Mist and Fog 66 18.9 65 18.3 96 96 Calm 29.83 1010 0.75 1.207005 0 0
3:49 am 03:49 Cloudy with Mist and Fog 66 19 66 19 100 100 Calm 29.83 1010 1.5 2.41401 0 0
3:51 am 03:51 Cloudy with Mist and Fog 66 18.9 66 18.9 100 100 Calm 29.86 1011 1.25 2.011675 0 0
4:02 am 04:02 Cloudy with Mist and Fog 66 18.9 65 18.3 96 96 Calm 29.83 1010 3 4.82802 0 0
4:51 am 04:51 Cloudy 66 18.9 65 18.3 96 96 SE 3 6 29.87 1012 7 11.26538 0 0
5:13 am 05:13 Cloudy with Mist and Fog 66 18.9 65 18.3 96 96 Calm 29.88 1012 1.75 2.816345 0 0
5:22 am 05:22 Cloudy with Fog 66 18.9 65 18.3 96 96 Calm 29.88 1012 0.5 0.80467 0 0
5:51 am 05:51 Mostly Cloudy with Mist and Fog 65 18.3 64 17.8 97 97 Calm 29.89 1012 0.75 1.207005 0 0
5:58 am 05:58 Partly Cloudy with Mist and Fog 65 18.3 64 17.8 97 97 Calm 29.88 1012 1 1.60934 0 0
6:09 am 06:09 Mostly Cloudy with Fog 64 17.8 64 17.8 100 100 S 5 7 29.88 1012 0.25 0.402335 0 0
6:51 am 06:51 Mostly Cloudy with Mist and Fog 65 18.3 65 18.3 100 100 W 5 7 29.91 1013 1 1.60934 0 0
7:00 am 07:00 Mostly Cloudy with Fog 65 18.3 65 18.3 100 100 W 5 7 29.88 1012 0.25 0.402335 0 0
7:51 am 07:51 Mostly Cloudy with Fog 66 18.9 66 18.9 100 100 W 6 9 29.93 1013 0.25 0.402335 0 0
8:33 am 08:33 Cloudy with Mist and Fog 66 18.9 66 18.9 100 100 Calm 29.91 1013 2 3.21868 0 0
8:42 am 08:42 Cloudy 67 19.4 67 19.4 100 100 Calm 29.91 1013 7 11.26538 0 0
8:51 am 08:51 Cloudy 67 19.4 66 18.9 97 97 Calm 29.93 1014 9 14.48406 0 0
9:04 am 09:04 Mostly Cloudy 69 20.6 67 19.4 93 93 ESE 5 7 29.91 1013 10 16.0934 0 0
9:24 am 09:24 Mostly Sunny 71 21.7 66 18.9 84 84 SE 5 7 29.91 1013 10 16.0934 0 0
9:51 am 09:51 Mostly Sunny 74 23.3 66 18.9 76 76 Calm 29.94 1014 10 16.0934 0 0
10:51 am 10:51 Sunny 78 25.6 66 18.9 67 67 VRB 3 6 29.92 1013 10 16.0934 0 0
11:51 am 11:51 Sunny 80 26.7 67 19.4 64 64 SSW 6 9 29.89 1012 10 16.0934 0 0
12:51 pm 12:51 Mostly Sunny 81 27.2 65 18.3 58 58 VRB 3 6 29.87 1012 10 16.0934 0 0
1:51 pm 13:51 Partly Cloudy 81 27.2 67 19.4 62 62 WNW 16 26 29.86 1011 10 16.0934 0 0.0254
1:58 pm 13:58 Partly Cloudy with Nearby Thunderstorms 78 25.6 63 17.2 60 60 W 33 54 29.8 1009 10 16.0934 0 0
2:17 pm 14:17 Cloudy with Thunderstorms 68 20 64 17.8 87 87 WNW 25 41 29.85 1011 2.5 4.02335 0 0.0254
2:24 pm 14:24 Cloudy with Heavy Thunderstorms 65 18.3 63 17.2 93 93 WNW 20 31 29.91 1013 0.75 1.207005 0.09 2.286
2:29 pm 14:29 Cloudy with Nearby Thunderstorms 65 18.3 63 17.2 93 93 NW 9 15 29.88 1012 1 1.60934 0.19 4.826
2:36 pm 14:36 Cloudy with Rain 66 18.9 63 17.2 90 90 NNW 9 15 29.88 1012 2.5 4.02335 0.24 6.096
2:43 pm 14:43 Cloudy with Light Rain 67 19.4 63 17.2 87 87 NW 7 11 29.88 1012 8 12.87472 0.24 6.096
2:51 pm 14:51 Cloudy with Nearby Thunderstorms 69 20.6 65 18.3 87 87 WNW 5 7 29.88 1012 10 16.0934 0.24 6.096
3:07 pm 15:07 Cloudy 70 21 64 18 83 83 WNW 8 13 29.83 1010 10 16.0934 0 0
3:51 pm 15:51 Sunny 76 24.4 62 16.7 62 62 W 3 6 29.85 1011 10 16.0934 0 0.0254
4:51 pm 16:51 Sunny 75 23.9 63 17.2 66 66 Calm 29.85 1011 10 16.0934 0 0
5:51 pm 17:51 Sunny 75 23.9 63 17.2 66 66 Calm 29.85 1011 10 16.0934 0 0
6:51 pm 18:51 Clear 73 22.8 64 17.8 74 74 Calm 29.86 1011 10 16.0934 0 0
7:51 pm 19:51 Clear 71 21.7 65 18.3 81 81 S 3 6 29.89 1012 10 16.0934 0 0
8:51 pm 20:51 Clear 70 21.1 67 19.4 90 90 Calm 29.9 1012 10 16.0934 0 0
9:51 pm 21:51 Clear 69 20.6 66 18.9 90 90 Calm 29.9 1013 10 16.0934 0 0
10:51 pm 22:51 Cloudy 70 21.1 66 18.9 87 87 NE 5 7 29.9 1012 10 16.0934 0 0
11:51 pm 23:51 Clear 69 20.6 65 18.3 87 87 S 6 9 29.89 1012 10 16.0934 0 0

Powered by AerisWeather